Regional Weather Roundup
Issued by NWS

Home | Current Version | Previous Version | Text Only | Print | Product List | Glossary On
Versions: 1 2 3 4 5 6 7 8 9 10 11 12 13 14 15 16 17 18 19 20 21 22 23 24 25 26 27 28 29 30 31 32 33 34 35 36 37 38 39 40 41 42 43 44 45 46 47 48 49 50
000
ASUS43 KMKX 010800
RWRWI

WISCONSIN REGIONAL WEATHER ROUNDUP
NATIONAL WEATHER SERVICE MILWAUKEE/SULLIVAN WI
300 AM CDT SAT AUG 01 2015

NOTE: "FAIR" INDICATES FEW OR NO CLOUDS BELOW 12,000 FEET WITH NO
SIGNIFICANT WEATHER AND/OR OBSTRUCTIONS TO VISIBILITY.

WIZ001-002-006>008-014>016-023>028-010900-
NORTHWEST WISCONSIN

CITY           SKY/WX    TMP DP  RH WIND       PRES   REMARKS
SUPERIOR ARPT  CLEAR     58  51  77 W7        29.94S
ASHLAND        CLEAR     55  50  83 W5        29.92S
HAYWARD        CLEAR     50  47  89 CALM      29.96F
SIREN          CLEAR     58  50  76 CALM      29.98F
CUMBERLAND     CLEAR     55  50  82 W5        29.99S
RICE LAKE      CLEAR     56  52  85 CALM      30.00S
CHETEK         CLEAR     55  53  93 CALM      29.99S
LADYSMITH      CLEAR     57  52  81 SW3       29.98F
EAU CLAIRE     NOT AVBL
MENOMONIE      PTCLDY    64  56  73 W5        29.99S
NEW RICHMOND   MOCLDY    64  56  77 W5        29.99F
OSCEOLA        MOCLDY    60  60 100 CALM      30.01F
$$

WIZ003>005-009-010-017-018-010900-
NORTH CENTRAL WISCONSIN

CITY           SKY/WX    TMP DP  RH WIND       PRES   REMARKS
MANITOWISH WTR CLEAR     49  49 100 CALM      29.93F
ARBOR VITAE    CLEAR     57  55  92 CALM      29.93F
WOODRUFF       CLEAR     57  55  92 CALM      29.93F
RHINELANDER    CLEAR     52  50  93 W8        29.95S
EAGLE RIVER    CLEAR     53  53 100 W5        29.92F FOG
LAND O LAKES   CLEAR     50  50  99 CALM      29.93S FOG
PHILLIPS       CLEAR     55  51  87 CALM      29.95S
TOMAHAWK       CLEAR     51  50  93 CALM      29.95F
MEDFORD        CLEAR     58  51  79 W6        29.97S
MERRILL        NOT AVBL
$$

WIZ029-030-035-036-043>047-010900-
CENTRAL WISCONSIN

CITY           SKY/WX    TMP DP  RH WIND       PRES   REMARKS
WAUSAU         PTCLDY    61  53  75 NW10      29.94F
MOSINEE        PTCLDY    59  52  77 W6        29.97S
MARSHFIELD     PTCLDY    59  49  69 W6        29.97F
STEVENS POINT  MOCLDY    63  51  66 W8        29.97S
WAUPACA        CLEAR     64  54  68 W6        29.95F
WAUTOMA        NOT AVBL
WISC RAPIDS    PTCLDY    59  51  75 W6        29.98F
CAMP DOUGLAS   NOT AVBL
$$

WIZ011>013-019>022-031-037>040-048>050-010900-
NORTHEAST WISCONSIN

CITY           SKY/WX    TMP DP  RH WIND       PRES   REMARKS
ANTIGO         CLEAR     55  53  92 W6        29.95S
SHAWANO        CLEAR     62  56  80 W6        29.93S
OCONTO         PTCLDY    56  55  96 CALM      29.89F
STURGEON BAY   CLOUDY    63  54  72 SW7       29.92S
GREEN BAY      CLEAR     60  55  83 W7        29.92S
MANITOWOC      NOT AVBL
APPLETON       CLEAR     59  52  77 W8        29.94F
CLINTONVILLE   PTCLDY    61  52  72 W8        29.93S
OSHKOSH        CLEAR     62  51  67 W6        29.94F
$$

WIZ032>034-041-042-053>061-010900-
SOUTHWEST WISCONSIN

CITY           SKY/WX    TMP DP  RH WIND       PRES   REMARKS
LA CROSSE      PTCLDY    63  57  81 SE5       29.99F
SPARTA         CLEAR     52  50  93 CALM      30.01S
VIROQUA        CLEAR     60  56  85 W6        30.02F
BOSCOBEL       CLEAR     59  56  89 SW5       30.01F
PRAIRIE DU CHI CLEAR     61  56  84 CALM      30.02S
PLATTEVILLE    CLEAR     61  57  88 W5        30.03S
$$

WIZ056-057-062-063-064-067-068-010900-
SOUTH CENTRAL WISCONSIN

CITY           SKY/WX    TMP DP  RH WIND       PRES   REMARKS
REEDSBURG      CLEAR     55  53  93 CALM      29.99F
BARABOO/DELLS  CLEAR     59  50  73 CALM      29.99F
LONE ROCK      NOT AVBL
MINERAL POINT  CLEAR     61  55  82 W3        30.02F
MADISON        CLEAR     64  52  64 W6        29.98F
MIDDLETON      CLEAR     58  53  83 CALM      30.00F
WATERTOWN      CLEAR     56  54  92 CALM      29.97F
MONROE         CLEAR     63  54  72 W10       30.01F
JANESVILLE     CLEAR     61  52  72 CALM      29.99F
$$

WIZ051-052-058>065-066-070>072-010900-
SOUTHEAST WISCONSIN

CITY           SKY/WX    TMP DP  RH WIND       PRES   REMARKS
MILWAUKEE      CLEAR     69  50  50 W7        29.96S
WAUKESHA       CLEAR     61  50  67 W7        29.98F
MILWAUKEE/TIMM CLEAR     63  50  63 W6        29.97S
RACINE         CLEAR     63  51  65 W7        29.98S
BURLINGTON     CLEAR     56  51  83 S3        29.98F
KENOSHA        CLEAR     59  51  75 W7        29.97F
FOND DU LAC    CLEAR     61  52  72 SW8       29.95F
SHEBOYGAN      CLEAR     62  54  74 W8        29.93F
WEST BEND      CLEAR     63  50  63 W8        29.96S
JUNEAU         CLEAR     55  51  88 SW5       29.98S
$$

LSZ147-162-010900-
LAKE SUPERIOR

STATION/POSITION TIME  TEMP    WIND        PRES    WAVE
                       AIR SEA DIR/SP/G            HT/PER
                 (UTC) (F)     (DEG/KT/KT) (MB)    (FT/S)
W MID LAKE BUOY  0650   58 53  270/ 14/ 17 1011.0F   1/ 3
DEVILS ISLAND    0700   58     260/  9/ 10 1012.5R
PORT WING        0700   66     240/ 10/ 14 1013.2F
SAXON HARBOR     0700   59                 1012.2
$$

LMZ867-665-643>646-010900-
LAKE MICHIGAN

STATION/POSITION TIME  TEMP    WIND        PRES    WAVE
                       AIR SEA DIR/SP/G            HT/PER
                 (UTC) (F)     (DEG/KT/KT) (MB)    (FT/S)
CHAMBERS ISLAND  0700   67     220/  6/ 10 1011.9F
S GREEN BAY BUOY 0700   64 70  260/ 10/ 12 1013.9F
N MID LAKE BUOY  0650   68 68  260/ 14/ 16 1010.7F   1/ 3
NORTHPORT PIER   0700   68     290/  7/ 11 1011.5S
SISTER BAY       0729   69     320/ 18/ 21   N/A
ALGOMA LAKESHORE 0742          240/  1/  4   N/A
KEWAUNEE LAKESHO 0700   63     300/  4/  5 1012.3F
SHEBOYGAN LAKESH 0700   68     260/  7/  9 1013.7F
PORT WASHINGTON  0700   67     270/  5/  7 1014.6F
ATWATER BUOY     0700   69 67  250/  8/ 10 1015.7F
MILWAUKEE LAKESH 0700   69     280/  7/ 10   N/A
KENOSHA   LAKESH 0700   69     270/  9/ 11 1014.6S
$$

TC  - TEMPERATURE IN CELSIUS
VSB - VISIBILITY IN STATUTE MILES
WCI - WIND CHILL INDEX
HX  - HEAT INDEX



USA.gov is the U.S. government's official web portal to all federal, state and local government web resources and services.